User: anonymous   Login
Location: Unspecified
(0.0000°N, 0.0000°E)
Time: 21:20:54
(UTC+00:00)
Language:

OPTUS D1 - Orbit

View from above orbital plane
View from above orbital plane
View from above satellite
View from above satellite

Ground track
Ground track

The orbit data is extracted from the following two-line orbital elements,

1 29495U 06043B   18147.48104934 -.00000120  00000-0  00000+0 0  9999
2 29495   0.0601 112.1648 0003884 315.5570 150.4355  1.00272250 42637
Epoch (UTC): 27 May 2018 11:32:42
Eccentricity: 0.0003884
inclination: 0.0601°
perigee height: 35770 km
apogee height: 35802 km
right ascension of ascending node: 112.1648°
argument of perigee: 315.5570°
revolutions per day: 1.00272250
mean anomaly at epoch: 150.4355°
orbit number at epoch: 4263

The dashed part of the orbit path shows where the satellite is in the earth's shadow,  

DLR